Kosmos-637

operational
NORAD ID: 7229 Int'l Des: 1974-017 Owner: OKB10 Country: SU
MEOCIRCULAR

About Kosmos-637

Description loading...

Live Position

Loading 3D Globe...

Upcoming Passes

Altitude History

Altitude vs Time

uPlot chart will show altitude changes over time

Two-Line Element Set

1 07229U 74017A 26063.48239072 .00000096 00000-0 00000-0 0 9996
2 07229 1.0932 256.6874 0039145 72.4332 187.2692 1.00772768121140
Epoch: Mar 4, 2026 • Age: 22 hours

Current Status

Altitude 35492.3 km
Velocity 3.09 km/s
Sub-Earth Point 0.86°N, 178.9°W
Type other

Large Constellations

Loading constellations...